Temperature
31 31 30 31 31 31 32 32 32 33 34 32 32 32 33 33 32 32 32 30 29 27 26 25 24 24 23 22 22 21 21 21 20 20 20 20 21 20 20 20 20 20 19 19
31 30 31 31 31 31 31 31 31 32 33 32 31 31 32 33 33 31 30 28 25 24 23 22 22 21 21 21 20 20 20 20 20 20 20 21 21 20 20 20 20 19 19 19
29 30 31 31 31 31 31 30 30 30 31 31 31 30 31 32 31 30 27 25 24 23 21 21 20 20 19 20 20 19 19 19 19 20 20 20 20 20 20 20 19 19 19 18
30 31 31 31 30 30 29 30 30 30 29 29 30 29 30 30 29 28 25 23 21 20 19 19 18 18 18 18 19 19 19 19 19 19 19 19 19 19 20 20 19 19 18 18
29 30 30 30 30 30 30 31 30 30 29 29 29 29 29 29 27 25 24 22 21 19 18 17 17 17 18 18 18 18 18 18 18 18 18 18 18 19 19 19 19 18 18 18
30 31 31 31 31 31 31 30 30 29 27 25 24 23 26 28 26 24 23 22 21 19 18 17 17 17 17 17 17 17 17 17 17 17 17 17 17 18 18 18 18 18 18 17
28 29 30 31 30 30 30 28 27 26 23 21 20 21 24 26 27 26 24 22 21 19 18 17 16 16 16 16 16 16 16 16 16 16 16 16 16 16 16 17 17 17 17 17
26 25 29 31 30 29 29 29 27 26 26 25 23 23 24 25 25 24 23 22 21 20 19 18 17 16 16 15 15 15 15 15 15 15 15 15 15 15 15 15 15 16 16 16
28 28 31 31 31 30 29 29 29 28 28 27 27 25 23 22 21 22 22 22 21 20 20 19 18 17 16 15 14 14 14 14 14 14 14 14 14 15 15 15 15 15 15 15
30 28 30 31 31 31 30 29 28 27 25 25 27 25 21 20 20 20 21 21 21 20 19 19 18 17 16 15 14 14 13 13 13 13 13 13 13 13 14 14 14 14 14 14
30 28 29 30 28 28 29 29 28 27 27 25 24 23 23 20 20 21 21 20 19 19 18 17 17 16 15 15 14 14 13 12 12 12 12 12 12 12 12 12 12 13 13 14
29 28 27 28 28 28 28 28 28 26 25 26 25 21 22 21 21 20 20 19 19 18 17 17 16 15 15 14 13 13 12 12 12 11 11 11 11 11 11 11 11 12 12 12
27 26 25 27 26 26 27 28 28 27 26 25 23 21 21 21 21 20 19 19 18 17 17 16 16 15 14 13 13 12 12 12 11 11 11 11 11 10 10 10 10 10 11 11
27 26 26 26 27 28 28 28 28 27 25 24 23 21 21 21 20 20 19 18 18 17 17 16 16 15 14 13 13 13 12 12 11 11 11 11 10 10 10 10 10 10 10 10
28 26 27 27 28 29 28 27 27 25 24 23 23 22 21 20 20 19 19 18 18 17 17 16 15 15 14 14 13 13 12 12 12 11 11 11 11 10 10 10 10 10 10 10
27 26 26 26 28 28 27 26 25 24 24 23 23 22 22 20 20 19 18 17 17 17 16 15 15 14 14 13 13 13 12 12 12 11 11 11 11 10 10 10 10 10 10 10
26 24 24 25 27 27 24 23 23 23 23 22 21 21 21 20 19 18 17 17 17 16 15 15 14 14 13 13 12 12 12 12 11 11 11 11 11 10 10 10 10 10 10 9
25 24 24 25 26 23 21 23 22 22 22 22 21 20 19 19 18 17 17 17 15 15 14 14 13 13 13 12 12 12 11 11 11 11 11 10 10 10 10 10 10 9 9 9
26 25 24 25 24 23 22 22 21 20 20 20 19 19 18 17 17 17 17 15 14 14 14 13 13 12 12 12 12 11 11 11 10 10 10 10 10 10 9 9 9 9 9 9
27 26 25 24 23 22 21 22 21 21 20 19 18 17 17 16 16 16 15 14 14 13 13 13 12 12 12 12 11 11 10 10 10 10 9 9 9 9 9 9 9 9 8 8
25 25 24 23 23 23 21 21 21 19 18 17 17 16 16 15 15 14 14 14 13 13 13 12 12 12 11 11 11 10 10 9 9 9 8 8 8 8 8 8 8 8 8 8
24 24 23 22 22 21 21 20 19 18 17 17 16 15 15 15 14 14 14 13 13 13 12 12 12 11 11 11 10 9 9 8 8 7 7 7 7 7 7 8 8 8 8 8
24 22 22 22 21 21 20 19 18 17 17 16 15 15 14 14 14 14 13 13 13 12 12 12 11 11 10 9 8 8 7 7 6 6 6 6 6 6 7 7 7 7 7 7
23 22 22 21 22 21 20 19 17 16 16 15 15 14 14 14 14 13 13 13 12 12 11 11 10 9 8 7 6 6 5 5 5 5 5 5 5 6 6 6 7 7 7 7
23 23 22 21 21 19 19 17 16 16 15 15 14 14 14 14 13 13 13 12 12 11 10 9 8 7 6 5 5 5 4 4 4 4 5 5 5 6 6 6 6 7 7 7
23 21 20 19 19 18 17 16 16 15 15 14 14 14 14 13 13 13 12 11 10 9 8 7 6 5 4 4 4 4 4 4 4 4 4 5 5 5 6 6 6 7 7 7
Wind_Speed
7 9 8 6 7 11 13 13 13 8 3 0 8 13 14 8 7 7 4 2 2 3 2 4 6 5 6 8 8 7 8 9 6 4 3 3 3 1 1 2 6 4 1 2
5 6 6 6 5 9 11 11 11 10 7 7 10 15 16 13 8 4 3 4 8 7 8 9 9 9 8 11 9 7 7 5 4 4 1 1 2 1 0 2 4 4 3 0
1 2 4 7 7 8 9 9 9 10 10 11 14 17 17 12 6 3 7 10 12 11 9 8 9 10 9 8 6 5 5 3 2 3 1 1 1 1 2 2 3 3 2 2
4 3 5 8 7 9 9 8 10 12 13 14 16 14 7 3 3 7 9 12 14 14 15 14 14 13 11 9 8 4 4 2 2 1 3 3 3 4 3 3 2 4 3 5
5 7 7 8 7 8 10 11 12 15 16 17 16 13 3 6 8 8 10 12 14 15 15 14 14 12 11 11 9 8 5 4 3 3 4 4 6 6 5 3 1 2 4 6
14 9 6 6 7 7 10 12 14 13 10 11 13 13 4 5 9 10 9 11 13 14 14 13 13 12 12 12 11 11 11 10 10 8 6 5 6 8 9 8 6 4 5 5
11 9 8 7 7 5 9 11 10 9 3 4 7 8 4 6 7 10 12 12 12 13 13 12 11 11 10 11 11 12 12 11 11 10 9 8 8 7 7 7 7 7 6 5
3 5 8 6 6 8 9 10 10 14 13 6 11 8 4 9 10 11 11 11 10 10 10 10 9 9 9 9 9 9 9 9 9 9 8 7 8 7 6 7 8 7 6 7
6 6 6 7 6 6 7 9 13 14 16 14 4 6 8 11 8 6 7 8 8 7 7 7 7 7 7 7 6 7 6 6 7 7 8 6 6 6 7 8 7 6 7 8
8 11 12 10 8 6 6 8 8 8 10 13 14 4 3 6 5 3 3 6 7 7 8 9 8 7 6 6 5 5 5 5 6 6 6 7 7 7 7 7 7 7 8 8
13 12 12 10 7 10 8 9 8 8 10 12 15 5 5 5 3 2 4 6 7 8 9 10 10 9 9 8 8 7 6 6 6 6 6 6 6 7 7 7 7 7 7 8
11 10 12 11 8 11 11 9 8 7 9 11 12 3 7 6 4 5 6 6 8 9 10 11 12 11 10 10 9 8 8 8 8 8 7 7 7 8 8 9 8 9 9 9
9 7 11 7 2 3 8 9 9 9 9 11 12 3 2 1 2 4 7 9 10 11 13 13 12 11 10 9 9 10 10 10 10 9 9 9 9 9 10 10 10 10 10 10
3 7 11 15 16 14 12 10 8 9 8 11 13 8 2 2 5 8 11 12 13 14 15 15 11 9 8 8 9 10 11 11 11 10 9 10 10 11 11 11 11 11 11 11
5 10 14 17 18 16 13 10 9 10 10 11 14 14 7 4 8 11 13 15 17 19 19 14 11 10 9 9 8 9 10 9 9 9 10 10 10 10 11 11 11 12 12 13
10 10 15 17 16 13 8 9 9 9 11 13 15 14 7 7 10 13 16 20 23 21 17 15 14 13 12 11 11 11 10 10 9 10 10 10 10 10 10 10 11 12 11 11
10 12 14 14 15 12 5 10 10 11 12 14 17 16 13 13 16 18 19 23 21 17 18 19 18 14 11 12 10 10 10 9 9 10 10 10 10 10 10 12 11 10 9 9
6 9 7 12 13 7 6 7 9 11 13 17 15 13 15 18 20 19 19 17 18 22 22 19 18 17 16 14 13 11 13 12 11 11 11 10 10 11 10 10 10 9 8 9
2 5 8 8 12 5 5 7 10 13 17 12 14 17 21 23 24 21 18 21 22 21 18 17 19 21 17 16 15 13 13 13 13 13 11 11 11 11 11 11 10 9 8 8
7 8 8 9 12 11 5 9 13 15 11 13 19 22 23 24 22 20 22 24 22 20 18 17 20 19 16 14 13 13 15 14 14 14 13 12 11 12 13 12 11 10 9 9
10 10 8 10 12 4 7 14 17 13 13 20 21 22 23 22 21 22 25 23 21 19 20 18 17 15 13 12 11 13 15 15 14 14 13 13 12 12 13 12 11 11 10 10
7 8 8 9 10 5 11 13 12 13 16 19 21 22 23 23 24 25 24 22 21 21 22 21 15 14 12 12 12 14 14 14 14 14 16 15 13 15 15 11 10 10 9 10
4 5 5 6 8 9 9 11 13 15 18 19 21 23 24 25 26 26 24 21 21 21 19 18 17 15 13 12 12 15 15 14 16 17 17 16 16 14 14 13 12 10 9 9
5 2 5 7 9 12 13 15 16 18 19 20 22 23 24 25 26 26 24 21 20 20 19 17 18 18 18 16 16 16 17 16 16 17 16 15 15 14 13 11 10 10 10 9
3 5 8 10 12 14 14 17 18 19 20 22 22 23 24 26 26 25 21 20 20 19 17 17 18 19 21 20 19 19 17 17 17 17 16 15 14 13 12 11 10 11 9 8
4 5 6 9 12 13 17 18 19 20 21 22 23 24 24 24 24 24 22 20 20 21 20 20 19 21 22 22 21 20 18 17 16 15 15 12 11 10 10 10 10 11 11 9
Wind_Direction
249 254 277 332 331 318 313 311 311 312 56 322 277 283 287 281 266 271 288 333 37 65 30 64 57 51 72 86 96 116 118 117 131 147 170 168 160 186 150 130 109 101 77 27
269 305 348 350 312 288 284 290 292 301 315 292 279 276 275 271 258 262 307 43 62 62 35 40 48 49 60 65 63 79 89 114 130 115 113 93 93 224 230 90 129 153 159 92
297 244 303 287 287 295 300 313 315 315 310 287 274 267 259 255 243 103 54 50 51 52 55 47 46 44 50 63 72 79 83 92 72 97 181 178 100 299 258 223 186 154 145 208
312 296 299 299 306 303 307 325 312 298 287 278 277 279 269 190 133 87 67 59 55 51 42 45 51 47 38 39 39 41 90 87 63 34 300 295 265 260 255 221 202 150 191 215
297 286 288 293 304 301 303 305 290 283 279 277 277 276 246 124 119 80 66 68 67 65 58 47 51 51 45 39 35 21 36 41 25 349 314 310 293 289 289 287 238 178 231 217
305 288 285 295 296 300 304 298 287 285 291 299 323 323 257 153 139 127 104 83 75 73 70 61 56 52 48 43 37 32 29 32 24 11 349 329 308 302 304 310 307 284 259 236
301 322 311 290 300 322 310 300 299 300 284 238 242 273 259 130 115 112 103 88 79 75 72 67 60 53 50 44 37 36 30 27 25 23 14 5 352 328 310 305 297 290 285 280
308 293 271 279 307 319 309 299 300 307 307 284 201 215 137 88 81 86 90 86 76 74 72 69 64 57 48 44 37 34 31 25 18 17 9 11 8 355 343 338 323 312 308 309
308 309 300 298 290 290 301 314 321 313 306 309 286 115 92 73 55 54 74 77 63 51 48 49 46 39 34 29 31 24 21 11 4 360 348 353 4 350 345 338 330 327 325 314
312 313 311 305 285 265 274 305 316 319 318 316 317 42 146 142 148 132 43 42 34 19 13 12 7 4 1 353 356 1 354 346 335 332 334 335 343 333 333 327 326 329 329 325
325 313 305 310 321 317 304 304 317 314 314 315 313 2 78 104 96 76 59 38 17 357 351 345 339 338 332 327 333 342 336 326 319 317 317 315 311 315 314 308 309 316 315 313
340 330 317 314 336 329 313 309 311 309 308 305 307 37 50 64 51 32 11 356 346 336 328 324 322 321 319 319 319 318 313 306 302 300 296 292 292 294 293 293 299 301 300 300
345 326 311 317 353 285 287 297 312 317 313 314 321 14 91 71 30 10 345 336 329 323 317 312 306 302 300 299 297 293 288 283 280 278 277 278 279 279 277 278 279 280 282 284
293 294 297 307 315 320 314 320 342 344 332 328 332 351 335 319 337 339 333 325 318 315 312 308 304 298 294 287 281 278 278 275 273 267 265 265 265 266 266 267 269 269 271 274
331 313 320 315 313 315 316 334 357 359 346 331 329 333 341 337 331 327 324 323 321 317 314 317 320 318 311 303 294 290 286 281 278 273 269 267 265 263 262 262 263 263 263 267
344 320 312 307 311 314 335 19 6 353 343 333 324 324 344 332 327 326 328 325 316 314 323 327 322 317 312 308 302 296 290 284 274 270 271 271 269 271 270 269 267 264 263 265
348 340 324 309 311 310 33 23 7 350 342 334 321 327 343 334 329 328 327 316 315 332 328 320 315 310 304 301 295 289 290 288 285 281 279 278 275 275 273 277 278 278 282 283
3 341 316 307 321 345 69 33 6 339 330 329 331 347 340 328 326 323 314 324 338 327 319 316 312 309 303 300 299 295 295 289 285 281 280 277 276 275 274 274 275 276 279 282
44 336 319 328 335 350 100 32 359 335 321 5 356 338 331 329 320 313 328 335 323 316 314 312 308 304 301 299 296 291 292 290 287 286 281 281 279 278 275 274 274 275 274 275
4 333 308 325 326 330 50 7 344 321 301 12 345 334 330 325 318 319 326 319 315 316 311 305 303 299 297 296 297 293 292 289 287 287 286 284 280 278 277 275 274 274 270 269
340 333 336 332 319 357 25 350 342 325 329 337 331 327 324 321 314 313 316 316 314 310 307 304 300 299 297 296 292 288 289 289 291 292 293 290 285 282 276 270 267 266 266 267
339 340 351 333 323 359 2 348 345 322 323 327 326 324 320 316 314 314 314 313 312 310 309 308 305 300 296 296 297 299 298 298 297 295 291 286 281 278 277 270 267 265 263 263
19 41 335 329 313 335 346 337 336 337 330 327 324 321 319 316 315 315 315 313 312 312 311 311 310 307 311 317 317 308 304 301 297 291 286 282 278 272 268 266 265 263 259 256
94 44 317 315 317 344 343 344 342 337 328 324 322 320 318 316 316 315 315 315 315 316 318 320 320 321 320 318 312 304 299 295 291 287 285 281 277 271 265 258 254 252 250 248
331 338 330 313 344 338 333 339 334 327 327 323 320 319 318 317 316 317 317 319 321 324 327 329 326 322 316 313 306 301 296 292 288 284 281 279 274 268 265 259 250 246 244 242
49 29 343 326 337 325 323 330 328 328 325 323 322 321 321 320 321 322 323 326 328 329 330 328 324 318 313 308 303 300 295 288 283 281 277 272 267 262 256 253 255 236 230 221
Height
1473 1474 1472 1467 1464 1464 1460 1459 1455 1447 1443 1453 1458 1457 1452 1450 1454 1454 1457 1459 1461 1465 1469 1467 1469 1470 1471 1471 1470 1470 1475 1480 1486 1490 1494 1497 1500 1500 1502 1505 1505 1505 1505 1505
1473 1476 1468 1467 1467 1466 1463 1464 1460 1452 1448 1454 1459 1458 1451 1449 1451 1455 1458 1461 1463 1464 1471 1468 1471 1471 1471 1469 1473 1471 1475 1481 1486 1488 1491 1495 1498 1499 1500 1502 1502 1502 1502 1502
1477 1477 1469 1468 1466 1467 1465 1466 1466 1465 1459 1456 1459 1461 1452 1448 1451 1456 1461 1466 1468 1469 1470 1473 1473 1470 1471 1474 1474 1475 1481 1486 1488 1489 1491 1494 1496 1498 1499 1499 1499 1499 1499 1499
1472 1468 1469 1469 1469 1469 1472 1465 1465 1465 1469 1468 1461 1470 1455 1450 1455 1461 1467 1470 1472 1474 1476 1477 1475 1474 1476 1477 1479 1482 1484 1487 1488 1490 1493 1494 1495 1496 1497 1497 1498 1497 1496 1496
1476 1470 1470 1472 1469 1467 1468 1462 1464 1465 1467 1469 1463 1469 1462 1452 1461 1467 1472 1476 1478 1479 1479 1481 1479 1478 1479 1479 1481 1484 1485 1486 1487 1489 1490 1490 1492 1494 1495 1494 1494 1493 1493 1493
1473 1467 1466 1466 1464 1463 1463 1464 1463 1464 1472 1493 1490 1495 1475 1460 1463 1468 1474 1478 1481 1482 1483 1485 1484 1484 1483 1482 1482 1483 1484 1484 1485 1486 1487 1488 1488 1489 1490 1490 1490 1490 1490 1490
1483 1474 1468 1465 1466 1465 1467 1474 1484 1489 1500 1510 1501 1502 1481 1463 1462 1467 1474 1480 1483 1485 1487 1488 1488 1488 1487 1486 1486 1484 1483 1483 1484 1484 1484 1484 1484 1485 1485 1485 1485 1485 1486 1486
1494 1495 1473 1464 1465 1470 1468 1471 1487 1495 1491 1484 1489 1488 1476 1468 1472 1476 1479 1482 1485 1487 1489 1490 1491 1491 1490 1490 1488 1486 1485 1484 1484 1483 1482 1482 1481 1481 1480 1480 1480 1480 1480 1480
1484 1482 1464 1461 1460 1464 1469 1469 1463 1471 1470 1472 1467 1472 1478 1478 1484 1484 1484 1484 1487 1489 1490 1491 1491 1491 1491 1490 1488 1487 1485 1484 1483 1482 1481 1480 1478 1478 1476 1476 1475 1475 1474 1474
1470 1478 1466 1458 1457 1458 1461 1463 1469 1478 1489 1489 1472 1476 1489 1488 1489 1487 1488 1488 1490 1491 1491 1492 1491 1491 1490 1489 1487 1485 1484 1482 1481 1479 1478 1476 1474 1473 1472 1471 1470 1469 1468 1467
1469 1478 1471 1464 1468 1470 1467 1466 1468 1473 1478 1491 1493 1493 1482 1489 1491 1490 1490 1492 1493 1493 1493 1493 1492 1490 1489 1487 1486 1484 1482 1480 1478 1476 1473 1471 1469 1468 1466 1465 1464 1462 1461 1460
1473 1476 1481 1473 1468 1466 1466 1466 1469 1484 1485 1479 1486 1500 1486 1489 1491 1492 1493 1494 1494 1494 1493 1492 1490 1488 1486 1484 1482 1481 1478 1476 1474 1471 1469 1466 1464 1462 1460 1459 1457 1456 1454 1453
1482 1488 1494 1483 1480 1475 1470 1464 1464 1469 1476 1482 1492 1503 1491 1491 1492 1492 1493 1493 1493 1492 1491 1489 1486 1484 1482 1480 1478 1476 1474 1471 1469 1466 1464 1461 1459 1457 1455 1453 1450 1449 1447 1445
1483 1487 1493 1495 1482 1469 1468 1464 1465 1472 1484 1488 1488 1494 1491 1491 1492 1493 1493 1493 1491 1490 1487 1484 1482 1480 1478 1476 1474 1471 1469 1467 1464 1461 1459 1456 1454 1452 1449 1447 1445 1443 1441 1439
1481 1486 1483 1477 1468 1464 1465 1467 1470 1477 1483 1490 1489 1489 1489 1490 1492 1492 1491 1490 1488 1486 1483 1480 1478 1476 1474 1472 1469 1467 1464 1461 1459 1456 1454 1451 1449 1447 1444 1442 1440 1438 1436 1434
1484 1487 1484 1480 1469 1465 1468 1474 1477 1482 1485 1487 1488 1488 1487 1489 1490 1490 1489 1487 1485 1481 1478 1477 1475 1472 1470 1467 1464 1461 1458 1455 1452 1449 1447 1445 1443 1441 1438 1436 1434 1432 1430 1429
1489 1494 1493 1488 1471 1469 1486 1490 1489 1490 1489 1490 1492 1489 1487 1489 1490 1489 1487 1485 1480 1477 1476 1474 1471 1467 1464 1461 1457 1454 1451 1448 1446 1443 1440 1438 1436 1433 1431 1430 1428 1426 1424 1423
1494 1495 1494 1486 1480 1496 1502 1492 1493 1494 1491 1489 1487 1490 1491 1491 1489 1488 1485 1480 1477 1475 1472 1468 1465 1461 1458 1454 1450 1447 1444 1441 1438 1435 1432 1430 1428 1426 1424 1422 1420 1419 1418 1416
1488 1493 1495 1491 1492 1494 1496 1495 1497 1498 1495 1493 1494 1494 1493 1490 1487 1483 1481 1479 1476 1472 1467 1463 1459 1455 1450 1447 1443 1439 1436 1433 1430 1427 1425 1422 1420 1418 1416 1414 1413 1412 1410 1409
1485 1487 1490 1493 1501 1503 1503 1498 1497 1497 1493 1496 1496 1494 1492 1489 1483 1479 1478 1475 1470 1466 1462 1457 1451 1447 1442 1438 1435 1431 1428 1424 1421 1419 1416 1414 1411 1409 1407 1405 1404 1404 1403 1402
1494 1492 1494 1498 1501 1494 1501 1499 1499 1503 1502 1498 1497 1494 1492 1488 1485 1478 1473 1469 1464 1459 1454 1449 1443 1439 1434 1430 1426 1422 1418 1415 1412 1409 1406 1404 1402 1400 1398 1396 1396 1395 1395 1394
1498 1499 1502 1503 1505 1507 1502 1502 1505 1507 1502 1499 1496 1493 1489 1485 1479 1474 1468 1463 1457 1451 1446 1441 1435 1430 1426 1422 1417 1412 1408 1405 1402 1399 1396 1393 1391 1390 1389 1387 1387 1387 1387 1387
1497 1506 1507 1508 1509 1504 1503 1505 1505 1503 1501 1498 1494 1490 1486 1480 1474 1468 1462 1456 1450 1444 1439 1434 1428 1422 1417 1413 1408 1403 1398 1395 1391 1387 1383 1381 1380 1379 1378 1377 1377 1378 1378 1379
1501 1504 1504 1505 1502 1503 1504 1504 1503 1502 1500 1496 1492 1487 1482 1475 1469 1462 1456 1449 1443 1438 1432 1426 1420 1414 1408 1404 1398 1393 1387 1382 1378 1374 1371 1369 1368 1367 1367 1367 1368 1369 1370 1372
1502 1502 1505 1505 1504 1505 1504 1505 1503 1500 1496 1493 1488 1483 1478 1471 1463 1457 1450 1444 1438 1432 1426 1420 1414 1406 1399 1393 1386 1380 1375 1370 1366 1363 1360 1358 1358 1357 1358 1358 1359 1360 1362 1365
1501 1505 1509 1510 1509 1508 1506 1504 1501 1497 1493 1488 1483 1478 1473 1467 1459 1452 1446 1440 1434 1427 1420 1413 1406 1398 1390 1382 1375 1369 1364 1360 1356 1352 1350 1349 1348 1348 1349 1350 1351 1353 1356 1358